TimeEDT,TemperatureF,Dew PointF,Humidity,Sea Level PressureIn,VisibilityMPH,Wind Direction,Wind SpeedMPH,Gust SpeedMPH,PrecipitationIn,Events,Conditions,WindDirDegrees,DateUTC
12:58 AM,76.1,69.3,79,29.75,10.0,SSW,10.4,-,N/A,,Clear,200,2013-06-30 04:58:00
1:58 AM,75.4,69.4,82,29.74,10.0,South,10.4,-,N/A,,Clear,190,2013-06-30 05:58:00
2:58 AM,74.5,70.5,87,29.73,10.0,SSW,8.1,-,N/A,,Partly Cloudy,200,2013-06-30 06:58:00
3:58 AM,74.3,70.3,87,29.72,10.0,SSW,6.9,-,N/A,,Clear,200,2013-06-30 07:58:00
4:58 AM,73.6,70.0,88,29.72,10.0,SSW,5.8,-,N/A,,Clear,210,2013-06-30 08:58:00
5:58 AM,72.9,69.8,90,29.74,10.0,SW,3.5,-,N/A,,Clear,220,2013-06-30 09:58:00
6:58 AM,72.7,70.2,92,29.76,10.0,South,3.5,-,N/A,,Clear,170,2013-06-30 10:58:00
7:09 AM,73.4,69.8,88,29.77,10.0,SSE,2.3,-,N/A,,Partly Cloudy,160,2013-06-30 11:09:00
7:19 AM,73.4,71.6,94,29.77,10.0,SSE,3.5,-,N/A,,Mostly Cloudy,160,2013-06-30 11:19:00
7:29 AM,73.4,71.6,94,29.78,10.0,South,4.6,-,N/A,,Mostly Cloudy,190,2013-06-30 11:29:00
7:58 AM,74.1,71.1,90,29.78,10.0,South,5.8,-,N/A,,Overcast,180,2013-06-30 11:58:00
8:18 AM,75.2,71.6,89,29.78,10.0,SSW,5.8,-,N/A,,Overcast,200,2013-06-30 12:18:00
8:33 AM,75.2,71.6,89,29.78,10.0,South,6.9,-,N/A,,Overcast,190,2013-06-30 12:33:00
8:58 AM,75.6,70.2,83,29.79,10.0,South,8.1,-,N/A,,Overcast,190,2013-06-30 12:58:00
9:13 AM,77.0,69.8,78,29.79,10.0,SW,6.9,-,N/A,,Overcast,220,2013-06-30 13:13:00
9:58 AM,77.4,70.0,78,29.79,10.0,SSW,4.6,-,N/A,,Overcast,200,2013-06-30 13:58:00
10:08 AM,77.0,69.8,78,29.79,10.0,SSW,5.8,-,N/A,,Overcast,210,2013-06-30 14:08:00
10:38 AM,78.8,69.8,74,29.79,10.0,SW,6.9,-,N/A,,Overcast,220,2013-06-30 14:38:00
10:58 AM,81.0,69.8,69,29.79,10.0,South,9.2,-,N/A,,Mostly Cloudy,190,2013-06-30 14:58:00
11:08 AM,82.4,69.8,66,29.79,10.0,SSW,9.2,-,N/A,,Mostly Cloudy,210,2013-06-30 15:08:00
11:38 AM,82.4,69.8,66,29.79,10.0,SW,8.1,-,N/A,,Scattered Clouds,230,2013-06-30 15:38:00
11:58 AM,83.8,68.0,59,29.79,10.0,SSW,6.9,-,N/A,,Scattered Clouds,210,2013-06-30 15:58:00
12:58 PM,85.5,68.2,56,29.78,10.0,SSW,8.1,-,N/A,,Scattered Clouds,200,2013-06-30 16:58:00
1:58 PM,88.2,67.6,50,29.76,10.0,Variable,4.6,-,N/A,,Scattered Clouds,0,2013-06-30 17:58:00
2:58 PM,90.0,66.4,46,29.75,10.0,SE,8.1,-,N/A,,Partly Cloudy,140,2013-06-30 18:58:00
3:58 PM,84.7,67.8,57,29.75,10.0,SSE,12.7,-,N/A,,Clear,150,2013-06-30 19:58:00
4:24 PM,80.6,66.2,61,29.75,10.0,SSE,16.1,-,N/A,Rain,Light Rain,160,2013-06-30 20:24:00
4:58 PM,76.3,70.0,81,29.79,9.0,South,6.9,-,0.02,Rain,Light Rain,190,2013-06-30 20:58:00
5:58 PM,75.0,72.9,93,29.80,6.0,SE,2.3,-,0.14,Rain,Light Rain,140,2013-06-30 21:58:00
6:28 PM,75.2,73.4,94,29.80,8.0,SSE,3.5,-,N/A,Rain,Light Rain,160,2013-06-30 22:28:00
6:43 PM,75.2,75.2,100,29.78,7.0,SSE,13.8,18.4,N/A,Rain,Light Rain,150,2013-06-30 22:43:00
6:58 PM,74.8,72.9,94,29.79,9.0,South,10.4,-,0.09,Rain,Light Rain,170,2013-06-30 22:58:00
7:18 PM,75.2,71.6,89,29.80,10.0,SSE,5.8,-,N/A,,Clear,160,2013-06-30 23:18:00
7:28 PM,75.2,73.4,94,29.82,10.0,South,8.1,-,N/A,,Partly Cloudy,190,2013-06-30 23:28:00
7:29 PM,75.2,73.4,94,29.82,10.0,South,8.1,-,N/A,,Light Drizzle,190,2013-06-30 23:29:00
7:58 PM,73.2,71.2,93,29.82,6.0,South,5.8,-,0.05,Rain,Rain,170,2013-06-30 23:58:00
8:38 PM,73.4,71.6,94,29.82,7.0,SE,4.6,-,N/A,Rain,Light Rain,130,2013-07-01 00:38:00
8:48 PM,73.4,71.6,94,29.83,10.0,SSE,3.5,-,N/A,Rain,Light Rain,160,2013-07-01 00:48:00
8:52 PM,73.4,71.6,94,29.83,10.0,SE,3.5,-,N/A,Rain,Light Rain,140,2013-07-01 00:52:00
8:58 PM,72.5,71.4,96,29.83,10.0,SSE,2.3,-,0.16,Rain,Light Rain,150,2013-07-01 00:58:00
9:04 PM,73.4,71.6,94,29.83,10.0,SSE,2.3,-,N/A,,Scattered Clouds,150,2013-07-01 01:04:00
9:09 PM,73.4,71.6,94,29.83,10.0,SSE,2.3,-,N/A,,Mostly Cloudy,160,2013-07-01 01:09:00
9:11 PM,73.4,71.6,94,29.83,10.0,SE,2.3,-,N/A,,Mostly Cloudy,130,2013-07-01 01:11:00
9:16 PM,73.4,71.6,94,29.83,10.0,SE,2.3,-,N/A,,Mostly Cloudy,140,2013-07-01 01:16:00
9:18 PM,73.4,71.6,94,29.83,10.0,SE,3.5,-,N/A,,Mostly Cloudy,130,2013-07-01 01:18:00
9:28 PM,73.4,71.6,94,29.83,10.0,ESE,3.5,-,N/A,,Mostly Cloudy,120,2013-07-01 01:28:00
9:43 PM,73.4,71.6,94,29.83,10.0,SE,2.3,-,N/A,,Overcast,130,2013-07-01 01:43:00
9:53 PM,73.4,71.6,94,29.84,10.0,South,2.3,-,N/A,,Overcast,170,2013-07-01 01:53:00
9:58 PM,72.7,71.2,95,29.84,10.0,SSE,2.3,-,0.01,,Overcast,160,2013-07-01 01:58:00
10:13 PM,73.4,71.6,94,29.84,10.0,South,3.5,-,N/A,,Overcast,170,2013-07-01 02:13:00
10:23 PM,73.4,71.6,94,29.84,10.0,South,3.5,-,N/A,,Overcast,170,2013-07-01 02:23:00
10:58 PM,73.4,71.6,94,29.84,10.0,SSE,2.3,-,N/A,,Mostly Cloudy,150,2013-07-01 02:58:00
11:04 PM,73.4,71.6,94,29.84,10.0,SE,3.5,-,N/A,,Mostly Cloudy,130,2013-07-01 03:04:00
11:19 PM,71.6,71.6,100,29.84,10.0,SE,3.5,-,N/A,,Mostly Cloudy,140,2013-07-01 03:19:00
11:41 PM,73.4,71.6,94,29.85,10.0,SSE,5.8,-,N/A,,Overcast,150,2013-07-01 03:41:00
11:58 PM,72.7,71.8,97,29.85,10.0,SSE,4.6,-,N/A,,Overcast,160,2013-07-01 03:58:00